Weather History for Huntington, WV

Change the Weather History Date:

Monday, February 18, 2013

  Actual Average Record
Temperature  
Mean Temperature 37 °F 38 °F  
Max Temperature 59 °F 47 °F 71 °F (1948)
Min Temperature 15 °F 29 °F -1 °F (1958)
Degree Days  
Heating Degree Days 28 27  
Month to date heating degree days 518 520  
Since 1 July heating degree days 3144 3244  
Cooling Degree Days 0 0  
Month to date cooling degree days 0 0  
Year to date cooling degree days 0 0  
Moisture  
Dew Point 20 °F    
Average Humidity 58    
Maximum Humidity 80    
Minimum Humidity 35    
Precipitation  
Precipitation 0.00 in 0.11 in 2.83 in (2000)
Month to date precipitation 0.76 1.92  
Year to date precipitation 4.68 4.89  
Snow  
Snow 0.00 in - - ()
Month to date snowfall 5.5  
Since 1 September snowfall 11.9  
Snow Depth 0.00 in    
Sea Level Pressure  
Sea Level Pressure 30.13 in    
Wind  
Wind Speed 7 mph (SE)    
Max Wind Speed 16 mph    
Max Gust Speed 23 mph    
Visibility 10 miles    
Events      
T = Trace of Precipitation, MM = Missing Value Source: NWS Daily Summary

Daily Weather History Graph

Daily Weather History Graph

Search for Another Location

Airport:

Trip Planner

Search our weather history database for the weather conditions in past years. The results will help you decide how hot, cold, wet, or windy it might be!

Date:

Astronomy

Feb. 18, 2013 Rise Set
Actual Time 7:16 AM EST 6:12 PM EST
Civil Twilight 6:49 AM EST 6:39 PM EST
Nautical Twilight 6:18 AM EST 7:09 PM EST
Astronomical Twilight 5:48 AM EST 7:40 PM EST
Moon 11:59 AM EST (2/18) 1:53 AM EST (2/18)
Length of Visible Light 11h 49m
Length of Day
10h 55m
First Quarter, 58% of the Moon is Illuminated
Feb 18
First Quarter
Feb 25
Full
Mar 4
Last Quarter
Mar 11
New
Mar 19
First Quarter

Hourly Weather History & Observations

Time (EST) Temp. Windchill Dew Point Humidity Pressure Visibility Wind Dir Wind Speed Gust Speed Precip Events Conditions
12:51 AM 19.0 °F 12.3 °F 9.0 °F 65% 30.29 in 10.0 mi East 4.6 mph - N/A   Clear
1:51 AM 17.1 °F 11.7 °F 10.0 °F 74% 30.29 in 10.0 mi East 3.5 mph - N/A   Clear
2:51 AM 17.1 °F 11.7 °F 10.9 °F 77% 30.28 in 10.0 mi East 3.5 mph - N/A   Clear
3:51 AM 16.0 °F 10.4 °F 10.9 °F 81% 30.28 in 10.0 mi East 3.5 mph - N/A   Clear
4:51 AM 16.0 °F 8.8 °F 10.9 °F 81% 30.27 in 10.0 mi East 4.6 mph - N/A   Clear
5:51 AM 17.1 °F 11.7 °F 10.0 °F 74% 30.27 in 10.0 mi ESE 3.5 mph - N/A   Clear
6:51 AM 15.1 °F 9.4 °F 10.0 °F 80% 30.27 in 10.0 mi East 3.5 mph - N/A   Clear
7:51 AM 17.6 °F 10.7 °F 10.4 °F 73% 30.23 in 10.0 mi East 4.6 mph - N/A   Clear
8:51 AM 23.0 °F 15.8 °F 12.9 °F 65% 30.25 in 10.0 mi East 5.8 mph - N/A   Clear
9:51 AM 32.0 °F 28.7 °F 17.1 °F 54% 30.23 in 10.0 mi ESE 3.5 mph - N/A   Clear
10:51 AM 41.0 °F 38.0 °F 19.0 °F 41% 30.20 in 10.0 mi Variable 4.6 mph - N/A   Mostly Cloudy
11:51 AM 46.9 °F - 21.0 °F 36% 30.17 in 10.0 mi South 11.5 mph 19.6 mph N/A   Clear
12:51 PM 51.1 °F - 25.0 °F 36% 30.13 in 10.0 mi South 11.5 mph 23.0 mph N/A   Clear
1:51 PM 54.0 °F - 28.0 °F 37% 30.09 in 10.0 mi South 11.5 mph 20.7 mph N/A   Clear
2:51 PM 55.9 °F - 30.0 °F 37% 30.07 in 10.0 mi South 11.5 mph 19.6 mph N/A   Clear
3:51 PM 57.0 °F - 30.0 °F 36% 30.05 in 10.0 mi South 9.2 mph - N/A   Clear
4:51 PM 57.9 °F - 30.0 °F 35% 30.03 in 10.0 mi SSW 12.7 mph 20.7 mph N/A   Clear
5:51 PM 55.0 °F - 28.9 °F 37% 30.01 in 10.0 mi South 8.1 mph - N/A   Clear
6:51 PM 53.1 °F - 28.0 °F 38% 29.98 in 10.0 mi SSE 5.8 mph - N/A   Clear
7:51 PM 52.0 °F - 26.1 °F 37% 29.98 in 10.0 mi South 9.2 mph - N/A   Clear
8:51 PM 51.1 °F - 26.1 °F 38% 29.95 in 10.0 mi South 8.1 mph - N/A   Clear
9:51 PM 50.0 °F - 26.1 °F 39% 29.91 in 10.0 mi SSE 8.1 mph - N/A   Clear
10:51 PM 51.1 °F - 26.1 °F 38% 29.87 in 10.0 mi SSE 10.4 mph - N/A   Clear
11:51 PM 51.1 °F - 25.0 °F 36% 29.83 in 10.0 mi South 11.5 mph 19.6 mph N/A   Partly Cloudy